depornauta-radio-shimano-190x780-derecha
depornauta-radio-shimano-190x780-izquierda
atletismo
23/01/2012

Siempre primero

A mediados de diciembre obtuvo el sexto puesto entre los 2.300 participantes del Maratón de Castellón en España donde corrió los 42 kilómetros en 2h18m09s que lo situaron a tan sólo nueve segundos de la marca B clasificatoria para los Juegos Olímpicos que anhela lograr en abril próximo en Rotterdam. Como forma de calentar motores, retornó a las pistas argentinas y lo hizo con un triunfo porque el atleta santafesino Nicolás Ternavasio subió a la cima del podio de la segunda edición de los 10K CRAS donde su esposa Verónica Ramírez se colgó la medalla de bronce en la clasificación general femenina.

Nacido hace veintiocho años en el pueblo de San Vicente, Nicolás Ternavasio conquistó la Copa Challenger al sumar dos victorias consecutivas en esta prueba organizada por el Club Rafaelino de Atletismo y Servicios gracias a correr los diez kilómetros en 31 minutos y 5 segundos que lo convirtieron en el más veloz de los 116 competidores que cruzaron la meta. Con una velocidad promedio de tres minutos y seis segundos por kilómetro a pesar del cansancio que arrastra de la temporada 2011 en la que compitió en tres maratones ya que además de los 42K españoles logró un cuerto puesto en el Iberoamericano de Caracas y ganó en Rosario, Nico Ternavasio superó por un minuto y once segundos a su escolta, Héctor Gómez de la localidad de Lehmann, mientras que el entrerriano Walter Jacob arribó tercero con 34m33s. seguido del cordobés Eduardo González y el local José Ledesma, cuarto y quinto con 35m45s y 36m33s respectivamente.

Entre las mujeres se impuso Isabel Ponce al correr los diez kilómetros en 38 minutos y 27 segundos que equivalen a un ritmo de tres minutos y cincuenta para cada mil metros. En segundo lugar se situó Fabiana Gaitán con 39 minutos exactos, ni un segundo más ni uno menos, por delante de Verónica Ramírez, esposa de Ternavasio, cuyos 44 minutos y 9 segundos le valieron la tercera ubicación entre las veinte participantes de esta segunda edición.

Corredor Edad Sexo Ciudad Tiempo Prom.
1 TERNAVASIO, NICOLAS 28 M SAN VICENTE 31:05:41 3:06:34
2 GOMEZ, HECTOR PASCUAL 25 M LEHMANN 32:16:32 3:13:39
3 JACOB, WALTER 24 M CRESPO (E.R.) 34:33:39 3:27:22
4 GONZALEZ, EDUARDO FELICIANO 26 M SUCO (CBA) 35:45:00 3:34:30
5 LEDESMA, JOSE 41 M RAFAELA 36:33:00 3:39:18
6 MANSILLA, CARLOS 29 M AÑATUYA (S.E.) 37:11:26 3:43:09
7 ORUNDEZ AYALA, JUAN CARLOS 28 M RAFAELA 37:46:01 3:46:36
8 PEREYRA, JUAN MARCELO 37 M PARANA (E.R.) 38:25:00 3:50:30
9 PONCE, ISABEL PATRICIA 37 F ESPERANZA 38:27:00 3:50:42
10 KURIGER, FERNANDO 30 M RAFAELA 38:30:13 3:51:01
11 D´ESPOSITO, MIGUEL OMAR 44 M ESPERANZA 38:47:45 3:52:47
12 GAITAN. FABIANA 41 F SANTA FE 39:00:16 3:54:02
13 BETTIG, GABRIEL 27 M FRANCK 39:04:00 3:54:24
14 RODRIGUEZ, OSVALDO 37 M RAFAELA 39:30:00 3:57:00
15 SIMI, LUIS EDUARDO 40 M BARRANCAS 39:53:09 3:59:19
16 NIEVAS, RICARDO 55 M LA LUCILA 41:15:09 4:07:31
17 CORDOBA, MILLAN 51 M SANTA FE 41:50:00 4:11:00
18 AGUILERA, BRUNO 16 M PORTEÑA (CBA) 42:00:00 4:12:00
19 AGUILERA, TOMAS GUILLERMO 14 M PORTEÑA (CBA) 42:02:08 4:12:13
20 MAGALLANES, ARIEL 20 M RAFAELA 42:04:00 4:12:24
21 REHLING, RUBEN IRMO 45 M ESPERANZA 42:21:26 4:14:09
22 REINHARDT, MARIANO 36 M RAFAELA 42:44:07 4:16:25
23 SICURELLA, JORGE 37 M RAFAELA 42:48:07 4:16:49
24 SOSA, OSCAR DARIO 36 M BANDERA (S.E) 43:14:00 4:19:24
25 STENDERUP, DAVID 39 M RAFAELA 43:27:23 4:20:44
26 CARAVARIO, FRANCO 19 M RAFAELA 43:37:23 4:21:44
27 CULASSO, EDUARDO 50 M RAFAELA 43:46:45 4:22:41
28 BONETTO, CESAR 39 M RAFAELA 44:07:26 4:24:45
29 RAMIREZ, VERONICA JUDIT 26 F SAN VICENTE 44:09:13 4:24:55
30 GUERRERO, LUIS ALBERTO 40 M SANTA FE 44:44:00 4:28:24
31 TOLEDO, GONZALO 21 M RAFAELA 44:45:00 4:28:30
32 CASSINA, ANDRES 34 M RAFAELA 44:57:23 4:29:44
33 PAROLA, SILVIO 52 M RAFAELA 45:02:20 4:30:14
34 PERREN, HECTOR A. 53 M S.J. NORTE 45:05:54 4:30:35
35 TERNAVASIO, FABRICIO ANDRES 25 M SAN VICENTE 45:30:00 4:33:00
36 CARPIO, WALTER H. 33 M RAFAELA 45:45:45 4:34:35
37 GUERRERO, GASTON 36 M RAFAELA 45:46:45 4:34:41
38 GOMEZ, HUGO OMAR CD M SAN CRISTOBAL 45:51:32 4:35:09
39 PAREDES, WALTER 23 M SAN CRISTOBAL 45:57:32 4:35:45
40 DRUBICH, DIEGO 42 M RAFAELA 46:03:00 4:36:18
41 BISIO, FERNANDO DAMIAN 34 M COLASTINE NORTE 46:45:00 4:40:30
42 MARTINEZ, RAFAEL 36 M SANTA FE 46:58:09 4:41:49
43 RAMINELLI, DANIEL 33 M RAFAELA 47:06:32 4:42:39
44 SANMARTINO, GUSTAVO H. 38 M RAFAELA 47:09:00 4:42:54
45 CATTALIN, SANTIAGO FEDERICO 57 M SANTO TOME 47:10:00 4:43:00
46 BORLLE, MARIANA 42 F RAFAELA 47:23:00 4:44:18
47 BERMUDEZ, RODOLFO 41 M SANTA FE 47:30:06 4:45:01
48 DONNET, JOSE 47 M RAFAELA 47:41:09 4:46:07
49 LLULL, DIEGO 30 M RAFAELA 47:42:00 4:46:12
50 ORTIZ, PEDRO 47 M RAFAELA 47:56:00 4:47:36
51 VEGA, JAVIER 40 M SANTA FE 48:10:00 4:49:00
52 BOLZICO, LUCIANO 33 M SUNCHALES 48:12:00 4:49:12
53 PERETTI, DIEGO 42 M RAFAELA 48:18:36 4:49:52
54 TOLEDO, LUIS 50 M RAFAELA 48:20:08 4:50:01
55 ALVARENGA, PABLO 19 M PARANA (E.R.) 48:34:36 4:51:28
56 WEINER, JAVIER 35 M RAFAELA 48:39:32 4:51:57
57 BARTOMIOLI, MARTIN 37 M RAFAELA 48:48:00 4:52:48
58 CAZZANIGA, CESAR LUIS 32 M RAFAELA 48:59:13 4:53:55
59 VALENTINUZZI, IVANA 43 F SANTO TOME 49:13:13 4:55:19
60 CHICCO, RICARDO 47 M RAFAELA 49:18:00 4:55:48
61 GAMARRA, SERGIO RAUL 44 M SAN JORGE 49:21:36 4:56:10
62 BRUNO, JOSE 52 M RAFAELA 49:27:32 4:56:45
63 YOSSEN, DANIEL 43 M FRANCK 49:33:00 4:57:18
64 DIAZ, CLAUDIO JULIO 49 M MORON (B.AIRES) 49:37:00 4:57:42
65 BENITEZ, ANGEL EUGENIO 57 M SANTA FE 49:47:00 4:58:42
66 RODRIGUEZ MESON, SILVINA 38 F RAMONA 49:52:00 4:59:12
67 VILLARREAL, DAMIAN 25 M RAFAELA 49:55:16 4:59:32
68 SANTI, MIRKO SEBASTIAN 33 M RAFAELA 49:56:01 4:59:36
69 TORANZO, FERNANDO 17 M PORTEÑA (CBA) 49:56:39 4:59:40
70 MARZIONI, FERNANDO 45 M RAFAELA 51:09:09 5:06:55
71 GARCIA, RODRIGO 30 M SUSANA 52:21:00 5:14:06
72 POSSETTO, FERNANDO 45 M RAFAELA 52:22:00 5:14:12
73 GARCIA, MARIA JOSE 28 F SANTA FE 52:34:07 5:15:25
74 CARABALLO, MONICA ALEJANDRA 36 F PARANA (E.R.) 52:37:45 5:15:47
75 MANFREDI, MARIANO ANDRES 38 M RAFAELA 52:53:00 5:17:18
76 CARPIO, AUGUSTO CARLOS 62 M PARANA (E.R.) 52:56:45 5:17:41
77 COSTMAGNA, GABRIEL HERNAN 38 M RAFAELA 53:22:00 5:20:12
78 SAUCEDO, ANTONIO 50 M RAFAELA 53:22:29 5:20:15
79 DONNET, ROCIO 19 F RAFAELA 53:47:23 5:22:44
80 GHIBERTO, DARIO 50 M RAFAELA 53:48:00 5:22:48
81 DEMARTIN, ROCIO 19 F RAFAELA 54:02:01 5:24:12
82 D’ELIA, ARIEL 35 M SANTA FE 54:05:48 5:24:35
83 CARDOZO, ELBA SUSANA 37 F EST. CLUCELLAS 54:28:54 5:26:53
84 SANCHIS, ANIBAL 36 M RAFAELA 54:32:51 5:27:17
85 ARGAÑARAZ, OSCAR V. 56 M RAFAELA 55:00:50 5:30:05
86 BERTOLINI, JULIAN LEONEL 19 M RAFAELA 55:08:50 5:30:53
87 GUNTERN, GUILLERMO 45 M RAFAELA 55:22:00 5:32:12
88 PEON, GUSTAVO 43 M RAFAELA 55:37:00 5:33:42
89 VICENTIN, MONICA A. 43 F SANTA FE 55:42:00 5:34:12
90 CAPELLINO, JOSE L. 43 M SUNCHALES 55:46:46 5:34:41
91 MATEO, VICTOR ENRIQUE 59 M SAN FRANCISCO (CBA) 55:53:03 5:35:18
92 ROSSO, CARLOS A. 61 M RAFAELA 55:57:21 5:35:44
93 VELIZ, JUAN JOSE 30 M RAFAELA 56:01:48 5:36:11
94 BARONETTI, GERMAN 32 M RAFAELA 56:03:47 5:36:23
95 SOVRANO, MARIA GUADALUPE 46 F SANTA FE 56:04:57 5:36:30
96 BARAVALLE, JOSE M. 62 M SANTA FE 56:52:05 5:41:12
97 VENCE, LUIS 43 M RAFAELA 56:58:00 5:41:48
98 ARAGON, LUISA 35 F AÑATUYA (S.E.) 57:25:00 5:44:30
99 KLOSTER, SOFIA 15 F RAFAELA 57:45:58 5:46:36
100 BLANZARI, REINALDO 57 M SAN FRANCISCO (CBA) 57:49:14 5:46:55
101 PIUZZI, ROCIO SOLEDAD 18 F RAFAELA 57:54:39 5:47:28
102 FOGOLIN, AGUSTIN CARLOS 19 M RAFAELA 57:55:00 5:47:30
103 MORILLA, JUAN 62 M SANTA FE 58:08:43 5:48:52
104 AVILA, LUCIO 16 M RAFAELA 58:17:32 5:49:45
105 RODRIGUEZ, FEDERICO 15 M RAFAELA 58:18:00 5:49:48
106 GINEZ, JAVIER 38 M RAFAELA 58:28:00 5:50:48
107 FAVARO, MAURICIO 39 M RAFAELA 58:55:12 5:53:31
108 BISIO, ANDRES ALFREDO 26 M SANTA FE 58:57:00 5:53:42
109 BECCACECE, DIEGO 32 M RAFAELA 61:26:29 6:08:39
110 GARETTO, HORACIO 51 M RAFAELA 61:44:00 6:10:24
111 TRONCOSO, YANINA 35 F RAFAELA 62:11:25 6:13:08
112 DAVICINO, RENE 57 M RAFAELA 62:17:00 6:13:42
113 BARONETTI, MONICA 50 F RAFAELA 62:37:00 6:15:42
114 DOCE, GRACIELA 60 F COLASTINE NORTE 64:16:00 6:25:36
115 PEREYRA, GABRIELA 17 F PARANA (E.R.) 66:25:00 6:38:30
116 VELIZ, FRANCISCO 78 M RAFAELA 74:24:00 7:26:24

Tags: , , , , , ,

opinión de los lectores


EL DEPORNAUTA no publicará comentarios inapropiados ni acusaciones infundadas. Tampoco tendrán cabida las opiniones que incluyan insultos o groseras descalificaciones. Los comentarios publicados son de exclusiva responsabilidad de sus autores que podrán ser pasibles de las sanciones legales que correspondan por sus dichos

Deja tu comentario!

mas noticias

Nutrición para correr 21K

Consejos alimenticios para antes, durante y después de correr un medio maratón.

nutricion running 1

Ganate una beca en Management del Deporte

Sorteamos una inscripción gratuita para el Programa Ejecutivo organizado por las consultoras Paradigmar y Deloitte.

ejecutivos 1

Últimos 298 lugares para el Maratón ASI

Los 10K de Caseros están cerca de agotar su cupo máximo de inscriptos tanto individual como postas.

maraton asi caseros largada 2014

Webtrainer es el socio ideal de todo entrenador

Un software que administra Running Teams y grupos deportivos en forma personalizada sin inversión inicial.

La Nº1 del maratón

Actual líder del ranking internacional femenino, Mare Dibaba se coronó campeona mundial de los 42 kilómetros.

dibaba maraton 1

El dream team de la zancada

Con Usain Bolt como su principal figura, Jamaica ganó su tercer título mundial en la posta 4×100 metros llanos.

jamaica 1

El rey de los fondistas

El bicampeón olímpico sumó su séptimo título mundial de atletismo de pista.

farah beijing 1

Ganate una beca en Management del Deporte

Sorteamos una inscripción gratuita para el Programa Ejecutivo organizado por las consultoras Paradigmar y Deloitte.

ejecutivos 1

Webtrainer es el socio ideal de todo entrenador

Un software que administra Running Teams y grupos deportivos en forma personalizada sin inversión inicial.

Top-5 de Maxi Richeze en Vuelta a España

El representante olímpico argentino arribó quinto entre los 215 ciclistas de la tercera carrera más importante del mundo

Giro del Trentino 2013

Comenzó la Vuelta a España

Se disputó la primera de las 21 etapas de la tercera carrera más importante del ciclismo después del Tour de France y el Giro de Italia.

bmc contrarreloj grupal

Negocio sobre ruedas

Nairo Quintana inscribió su nombre y apellido como marca registrada para proyectos comerciales evitando que utilicen su imagen sin permiso.

quiintana nairo contrarreloj 2

Deporte solidario

En el Duatlón LeiMan y los 30K Vuelta a la Laguna de Chascomús se recibirán donaciones para chicos afectados por la inundación bonaerense.

chicos

Los mejores ciclistas del mundo

Tras el Tour de France se elaboró el nuevo ranking mundial de ruta tanto individual como por equipos.

quintana froome primer plano 1

Ganate una beca en Management del Deporte

Sorteamos una inscripción gratuita para el Programa Ejecutivo organizado por las consultoras Paradigmar y Deloitte.

ejecutivos 1

La adolescente más veloz del país

Con trece años, la cordobesa Delfina Dini batió un récord argentino en pileta libre durante el campeonato mundial de Singapur.

dini delfina natacion crol 1

Dos argentinas entre las mejores del mundo

Celeste Puñet y Diana Valentini se coronaron subcampeonas mundiales de natación para sordos en los Estados Unidos.

punet y valentini 1

Webtrainer es el socio ideal de todo entrenador

Un software que administra Running Teams y grupos deportivos en forma personalizada sin inversión inicial.

Tan jóvenes como veloces

Delfina Pignatiello y Nicolás Deferrari batieron sendos récords argentinos en el campeonato mundial junior de pileta larga en Singapur.

deferrari nicolas espalda

Mujer nadó 48 Km. en mar abierto

A sus 38 años, Kim Chambers completó una de las travesías más difíciles de la natación a pesar del frío y el riesgo de un ataque de tiburón.

chambers natacion aguas abiertas 1

Un día, dos récords

Macarena Ceballos y Andrea Berrino batieron las plusmarcas argentinas de los 50 metros estilo pecho y espalda respectivamente.

ceballos macarena natacion espalda 1

Ganate una beca en Management del Deporte

Sorteamos una inscripción gratuita para el Programa Ejecutivo organizado por las consultoras Paradigmar y Deloitte.

ejecutivos 1

Regreso con gloria

Tras dos meses de receso competitivo, Alejo Badino retornó a las pistas ganando el Duatlón de Villa Gesell. RESULTADOS.

badino llegada gesell 1

Webtrainer es el socio ideal de todo entrenador

Un software que administra Running Teams y grupos deportivos en forma personalizada sin inversión inicial.

Menos tenso, más veloz

Así se relaja la mente para sacar el máximo provecho a cada entrenamiento o competencia deportiva.

running largada 1

Vendieron IronMan en 650 millones de dólares

La World Triathlon Corporation transfirió la propiedad del circuito internacional que incluye el mundial de Hawaii.

dolar triatlon 1

“Son carreras que activan las fibras rápidas”

Maxi Passadore habló sobre el circuito de duatlón de Buenos Aires tras ganar en Costanera y finalizar segundo en Palermo.

passadore maxi primer plano running 1

Todas las generaciones del duatlón

Se disputó el campeonato argentino infanto juvenil en La Pampa donde también hubo una carrera para adultos. RESULTADOS.

duatlon la pampa 1

Deporte solidario

En el Duatlón LeiMan y los 30K Vuelta a la Laguna de Chascomús se recibirán donaciones para chicos afectados por la inundación bonaerense.

chicos

10K a puro trail running

En la ciudad santafesina de Reconquista se realizará una carrera a través de caminos rurales y senderos silvestres.

afiche reconquista aventura 3

Feliz Día del Amigo para todos los depornautas

Saludamos a nuestros lectores y oyentes que son una legión de campeones mundiales de la amistad.

amigos-running-1

Resultados K21 Salomon Junín

Clasificación oficial del medio maratón de aventura y su prueba complementaria de 1OK.

k21 junin 1

Segundo bronce en canotaje

Argentina se adjudicó el tercer puesto masculino en la K4 1.00 metros tal como el día anterior lo hicieron las mujeres en K4 500 metros.

canotaje argentina 1

Primera medalla argentina en Toronto 2015

Sabrina Ameghino, Alexandra Keresztezi, Magdalena Garro y Brenda Rojas ganaron el bronce panamericano en K4 500 metros del canotaje femenino.

argentina mujeres canotaje

Corré la Salomon K21 de Junín

En la bonaerense Laguna de Gómez se realizará el medio maratón de cross aventura junto con una prueba de 10K.

k21 llegada pauluzak san pedro 1

Otra goleada, otra Copa

River Plate conquistó el trofeo Surua Bank en Japón al vencer 3 a 0 al equipo nipón Gamba Osaka.

river copa libertadores 1

River campeón de la Copa Libertadores

Venció a Tigres de México sumando su tercer título en el torneo más importante del fútbol sudamericano.

river libertadores festejo

Chile campeón

La selección trasandina de fútbol conquistó la Copa América al vencer a la Argentina en la definición por penales.

chile 1

El show del fútbol

Argentina derrotó a Paraguay por 6 a 1 clasificándose a la final de la Copa América que definirá ante Chile. VIDEO DE GOLES.

rojo

El mejor equipo de la historia

Con Messi y Mascherano, Barcelona de España sumó su segunda triple corona al conquistar la Champions League venciendo 3 a 1 a la Juventus de Italia.

barcelona messi 1

Boca le ganó a River

Se impuso con dos goles convertidos al final del partido que lo sitúan como único líder del torneo argentino de primera división.

boca-river

River ganó la Recopa

El equipo millonario volvió a vencer por 1 a 0 a San Lorenzo conquistando el séptimo título internacional en la historia del club de Núñez.

river campeon 1

Una victoria, tres derrotas

Tres de los cuatro tenistas argentinos fueron eliminados en la primera ronda del Abierto de Estados Unidos.

delbonis us open 1

Roger Federer donó 12 millones de euros

El tenista suizo construirá 81 escuelas en el sur de África para educar a un millón de chicos.

federer africa 1

Del Potro se quedó sin entrenador

El tenista tandilense se desvinculó del técnico Franco Davín y su preparador físico Martiniano Orazi.

del potro davin

Argentina venció a Serbia

El equipo nacional de tenis avanzó a la semifinal de Copa Davis tras ganar tanto los dos primeros singles como el doble.

mayer-berlocq

Match-point a favor

La Argentina ganó los dos primeros singles ante Serbia por cuartos de final de Copa Davis.

mayer-reves-1

Un día, dos medallas

El tenista rosarino Facundo Bagnis ganó el oro panamericano en single para después coronarse subcampeón de doble junto a Guido Andreozzi.

bagnis oro

Un argentino campeón en Wimbledon

El tenista paralímpico Gustavo Fernández ganó el Grand Slam inglés en la modalidad de silla de ruedas.

fernandez wimbledon paralimpico

Todas las generaciones del duatlón

Se disputó el campeonato argentino infanto juvenil en La Pampa donde también hubo una carrera para adultos. RESULTADOS.

duatlon la pampa 1

Resultados Duatlón de Cerrito

Clasificación oficial con tiempos parciales de la quinta fecha del campeonato entrerriano.

rode nelson llegada cerrito 1

Resultados Duatlón de Concepción

Clasificación oficial de la 4° fecha entrerriana.

rode nelson running 1

Resultados Duatlón LeiMan

Clasificación oficial de la fecha inaugural del circuito bonaerense disputada en Carlos Keen.

morales andrea ciclismo triatlon 1

Resultados K21 Salomon Junín

Clasificación oficial del medio maratón de aventura y su prueba complementaria de 1OK.

k21 junin 1

Resultados Duatlón de Seguí

Clasificación oficial de la tercera fecha del campeonato entrerriano.

podio duatlon segui

Resultados Duatlón Crespo

Clasificación oficial de la tercera fecha entrerriana.

podio crespo 1

Argentina tiene Triatlón IronMan

Buenos Aires será sede de una prueba clasificatoria para el campeonato mundial con 25.000 dólares en premios en efectivo.

ironman buenos aires

Argentina copó el podio en Brasil

La selección nacional de natación paralímpica conquistó veintiún medallas en el torneo Open Caixa de San Pablo.

natacion paralimpica argentina 1

Triatlón al más alto nivel

La selección argentina compitió en la ITU World Triathlon Series de Nueva Zelanda. RESULTADOS.

taccone triatlon

Karina Córdoba arribó 3º en 21K de España

La atleta porteña se colgó el bronce en el Medio Maratón de Elche registrando la segunda mejor marca argentina del año.

cordoba running maraton 3

La corredora más veloz

Rosa Godoy se coronó campeona argentina clasificándose a los Panamericanos de Canadá y el Sudamericano de Perú.

rosa godoy atletismo running 2

Top-5 argentino en Copa del Mundo de triatlón

Gonzalo Tellechea arribó 5º entre 75 compertidores en Nueva Zelanda.

triatlon argentina 3

Triple oro para Miguelena

El nadador marplatense conquistó los títulos nacionales de 50, 100 y 200 metros pecho del campeonato argentino donde logró la mejor marca técnica.

miguelena pecho 1

Nutrición para correr 21K

Consejos alimenticios para antes, durante y después de correr un medio maratón.

nutricion running 1

Ganate una beca en Management del Deporte

Sorteamos una inscripción gratuita para el Programa Ejecutivo organizado por las consultoras Paradigmar y Deloitte.

ejecutivos 1

Últimos 298 lugares para el Maratón ASI

Los 10K de Caseros están cerca de agotar su cupo máximo de inscriptos tanto individual como postas.

maraton asi caseros largada 2014

Webtrainer es el socio ideal de todo entrenador

Un software que administra Running Teams y grupos deportivos en forma personalizada sin inversión inicial.

Menos tenso, más veloz

Así se relaja la mente para sacar el máximo provecho a cada entrenamiento o competencia deportiva.

running largada 1

Feliz Día de la Radio

Eldepornauta.com saluda a oyentes, colegas e integrantes cuyo trabajo nos permite celebrar nuestro programa Nº118 con buenas noticias y la mejor música.

horowitz gaby radio shimano mayo 2

Condena social para tramposos

Ganador del oro olímpico propuso un inusual método para identificar a los atletas que incurren en doping.

doping medalla 1

Negocio sobre ruedas

Nairo Quintana inscribió su nombre y apellido como marca registrada para proyectos comerciales evitando que utilicen su imagen sin permiso.

quiintana nairo contrarreloj 2

A los 91 años corrió 100 mts. en 19 segundos

El psicólogo peruano Antonio Delgado se coronó campeón mundial de atletismo Master.

delgado atletismo master 1

El dúo dinámico de la bicicleta

El equipo Movistar confirmó que Nairo Quintana y Alejandro Valverde competirán en la Vuelta a España tras copar el podio del Tour de France.

valverde quintana 1

La bicicleta da revancha

Nairo Quintana triunfó en el Critérium de Bélgica relegando al segundo puesto a Chris Froome, su verdugo en el reciente Tour de France.

quintana 1

Ganó 23 medallas, 15 de oro

El subcampeón olímpico brasilero de natación Thiago Pereira se convirtió en el máximo coleccionista de podios en Juegos Panamericanos.

thiago pereira medallas 1

Doping en Toronto 2015

El nadador peruano Mauricio Fiol Villanueva fue despojado de su medalla de plata al constatarse que consumió una sustancia ilícita.

fiol mauricio subacuatico 1

Casi Top-10

Romina Biagioli y Romina Palacio Balena finalizaron 11º y 12º respectivamente en el triatlón panamericano que ganó la chilena Bárbara Riveros.

biagioli romina running 1

Feliz Día de la Radio

Eldepornauta.com saluda a oyentes, colegas e integrantes cuyo trabajo nos permite celebrar nuestro programa Nº118 con buenas noticias y la mejor música.

horowitz gaby radio shimano mayo 2

Feliz Día del Amigo para todos los depornautas

Saludamos a nuestros lectores y oyentes que son una legión de campeones mundiales de la amistad.

amigos-running-1

Un Día del Periodista a pura noticia

Agradecemos a los lectores y anunciantes que nos posicionaron como el diario digital Nº1 en deportes olímpicos.

horowitz gaby radio shimano mayo 2

Feliz Día Mundial de la RADIO

Eldepornauta.com saluda a oyentes, colegas e integrantes cuyo trabajo nos permite celebrar 188 programas con buenas noticias y la mejor música.

radio grupal 3

“El running te ordena la vida”

La corredora Clarisa Ríos contó en Eldepornauta RADIO como dejó el cigarrillo hasta convertirse en una referente del atletismo de calle.

clarisa rios sprint 1

86 páginas de puro running

Víctor Aufgang habló sobre la experiencia de correr 52 maratones que volcó en su libro Entre Máquinas y Zapatillas.

victor libro 3

Yoga para running, natación y ciclismo

Beneficios de esta disciplina milenaria para quienes corren, nadan o pedalean.

yoga 3